Location: Dilsberg
(49.3983°N, 8.8354°E)
Time: 23:23:06
(UTC+00:00)

Cosmos 1125 Rocket - Pass Details

Date: 19 May 2025
Orbit: 753 x 776 km, 74.0° (Epoch: 15 June)

Event Time Altitude Azimuth Distance (km) Brightness Sun altitude
Rises 21:02:32 0° 332° (NNW) 3,268 8.7 -14.1°
Reaches altitude 10° 21:05:00 10° 326° (NW) 2,337 7.5 -14.3°
Maximum altitude 21:10:03 45° 255° (WSW) 1,046 4.3 -14.8°
Enters shadow 21:14:02 16° 188° (S) 1,952 5.2 -15.1°
